Find Starlink 36411

NORAD ID: 67608 Int'l Des: 2026-018 Owner: SPXS Country: US Constellation: starlink operational
LEOCIRCULARRETROGRADE

現在のビュー

3D地球を読み込み中...

Starlink 36411について

説明を読み込み中...

次回通過

Passes for default location (London). Set your location on the main map for personalized predictions.

高度履歴

Loading altitude history...

軌道要素

1 67608U 26018V 26146.15758505 .00031407 00000-0 97007-3 0 9990
2 67608 97.2847 211.2318 0000692 111.3046 248.8271 15.33479739 19202
Epoch: May 26, 2026 • Age: 12 hours

現在のステータス

高度 491.2 km
速度 7.62 km/s
衛星直下点 -66.98°S, 104.69°E
打ち上げ日 Jan 29, 2026
運用期間 0.3 years
タイプ internet

技術仕様

分類 Payload
質量 575.00 kg
乾燥質量 530.00 kg
総質量 575.00 kg
長さ 0.30 m
直径 4.10 m
スパン 29.00 m
形状 Box + pan
製造者 SPXS
バスタイプ Starlink V2MO
フェーズステータス In Orbit
所有者/国 SPXS/US

Most Searched